Location: *
(49.9853°N, 3.5569°E)
Time: 07:36:11
(UTC+00:00)

Cosmos 1707 - Pass Details

Date: 22 September 2019
Orbit: 517 x 530 km, 82.5° (Epoch: 20 October)

Event Time Altitude Azimuth Distance (km) Brightness Sun altitude
Rises 19:11:24 0° 343° (NNW) 2,685 6.9 -14.5°
Reaches altitude 10° 19:13:39 10° 336° (NNW) 1,790 6.0 -14.9°
Maximum altitude 19:17:18 38° 267° (W) 823 4.3 -15.4°
Drops below altitude 10° 19:20:56 10° 199° (SSW) 1,776 5.4 -16.0°
Sets 19:23:10 0° 191° (SSW) 2,660 6.2 -16.3°
